Location: Devargunta
(16.7631°N, 80.9077°E)
Time: 16:34:36
(UTC+00:00)

Cosmos 1346 Rocket - Pass Details

Date: 19 January 2021
Orbit: 532 x 546 km, 81.2° (Epoch: 26 February)

Event Time Altitude Azimuth Distance (km) Brightness Sun altitude
Rises 14:20:19 0° 194° (SSW) 2,666 6.7 -27.0°
Reaches altitude 10° 14:22:29 10° 199° (SSW) 1,776 5.8 -27.5°
Enters shadow 14:24:36 29° 213° (SSW) 985 4.4 -28.0°
